Napa County, CA

10:46 PM PDT on August 20, 2017 (GMT -0700)
Napa County

Weather History for KAPC - November, 2013

Change the Weather History Date:

Monday, November 11, 2013

  Actual Average Record
Temperature  
Mean Temperature 50 °F 52 °F  
Max Temperature 65 °F 65 °F 74 °F (1999)
Min Temperature 35 °F 40 °F 28 °F (1938)
Degree Days  
Heating Degree Days 15    
Month to date heating degree days 117  
Since 1 July heating degree days 427  
Cooling Degree Days 0    
Month to date cooling degree days 0  
Year to date cooling degree days 303  
Moisture  
Dew Point 41 °F    
Average Humidity 78    
Maximum Humidity 100    
Minimum Humidity 56    
Precipitation  
Precipitation 0.00 in - 1.78 in (1983)
Month to date precipitation 0.00  
Year to date precipitation 2.82  
Since 1 July precipitation 0.85  
Sea Level Pressure  
Sea Level Pressure 30.12 in    
Wind  
Wind Speed 2 mph (NW)    
Max Wind Speed 18 mph    
Max Gust Speed 26 mph    
Visibility 3 miles    
Events Fog    
T = Trace of Precipitation, MM = Missing Value Source: NWS Daily Summary

Daily Weather History Graph

Daily Weather History Graph

Search for Another Location

Airport or City:

Trip Planner

Search our weather history database for the weather conditions in past years. The results will help you decide how hot, cold, wet, or windy it might be!

Date:

Astronomy

Nov. 11, 2013 Rise Set
Actual Time 6:46 AM PST 4:59 PM PST
Civil Twilight 6:18 AM PST 5:27 PM PST
Nautical Twilight 5:46 AM PST 5:59 PM PST
Astronomical Twilight 5:15 AM PST 6:30 PM PST
Moon 1:38 PM PST (11/11) 12:42 AM PST (11/11)
Length of Visible Light 11h 09m
Length of Day
10h 13m
Waxing Gibbous, 67% of the Moon is Illuminated
Nov 11
Waxing Gibbous
Nov 17
Full
Nov 25
Last Quarter
Dec 2
New
Dec 9
First Quarter

Hourly Weather History & Observations

Time (PST) Temp. Windchill Dew Point Humidity Pressure Visibility Wind Dir Wind Speed Gust Speed Precip Events Conditions
12:03 AM 39.2 °F - 39.2 °F 100% 30.11 in 1.8 mi Calm Calm - N/A   Mostly Cloudy
12:06 AM 39.2 °F - 37.4 °F 93% 30.11 in 2.5 mi Calm Calm - N/A   Scattered Clouds
12:23 AM 39.2 °F - 39.2 °F 100% 30.11 in 1.2 mi Calm Calm - N/A   Partly Cloudy
12:25 AM 39.2 °F - 39.2 °F 100% 30.11 in 0.8 mi Calm Calm - N/A   Mist
12:33 AM 39.2 °F - 39.2 °F 100% 30.11 in 0.5 mi Calm Calm - N/A Fog Fog
12:54 AM 37.9 °F - 37.9 °F 100% 30.09 in 0.2 mi Calm Calm - N/A Fog Fog
1:05 AM 39.2 °F 37.0 °F 39.2 °F 100% 30.12 in 0.5 mi WNW 3.5 mph - N/A Fog Fog
1:08 AM 39.2 °F 37.0 °F 39.2 °F 100% 30.12 in 1.0 mi NW 3.5 mph - N/A   Mist
1:13 AM 39.2 °F - 39.2 °F 100% 30.12 in 3.0 mi Calm Calm - N/A   Mostly Cloudy
1:18 AM 39.2 °F - 39.2 °F 100% 30.13 in 2.5 mi Calm Calm - N/A   Scattered Clouds
1:23 AM 37.4 °F - 37.4 °F 100% 30.13 in 1.0 mi Calm Calm - N/A   Mist
1:25 AM 35.6 °F - 35.6 °F 100% 30.13 in 0.5 mi Calm Calm - N/A Fog Fog
1:54 AM 37.0 °F 32.4 °F 36.0 °F 96% 30.10 in 0.5 mi SE 5.8 mph - N/A Fog Fog
1:56 AM 35.6 °F 32.8 °F 35.6 °F 100% 30.13 in 1.0 mi SE 3.5 mph - N/A   Mist
2:03 AM 37.4 °F - 37.4 °F 100% 30.13 in 0.5 mi Calm Calm - N/A Fog Fog
2:14 AM 37.4 °F - 37.4 °F 100% 30.13 in 1.0 mi Calm Calm - N/A   Mist
2:17 AM 39.2 °F - 39.2 °F 100% 30.13 in 2.0 mi Calm Calm - N/A   Scattered Clouds
2:25 AM 39.2 °F - 39.2 °F 100% 30.12 in 5.0 mi Calm Calm - N/A   Partly Cloudy
2:54 AM 39.0 °F - 37.0 °F 93% 30.11 in 3.0 mi Calm Calm - N/A   Clear
3:10 AM 37.4 °F - 37.4 °F 100% 30.13 in 2.0 mi Calm Calm - N/A   Scattered Clouds
3:21 AM 39.2 °F - 39.2 °F 100% 30.14 in 2.0 mi Calm Calm - N/A   Mostly Cloudy
3:23 AM 39.2 °F - 39.2 °F 100% 30.15 in 1.2 mi Calm Calm - N/A   Mostly Cloudy
3:26 AM 39.2 °F - 39.2 °F 100% 30.15 in 0.5 mi Calm Calm - N/A Fog Fog
3:35 AM 37.4 °F - 37.4 °F 100% 30.15 in 1.0 mi Calm Calm - N/A   Overcast
3:45 AM 37.4 °F - 37.4 °F 100% 30.14 in 2.0 mi Calm Calm - N/A   Mostly Cloudy
3:51 AM 37.4 °F - 37.4 °F 100% 30.14 in 0.8 mi Calm Calm - N/A   Mostly Cloudy
3:54 AM 37.0 °F - 37.0 °F 100% 30.12 in 0.5 mi Calm Calm - N/A Fog Fog
4:05 AM 35.6 °F - 35.6 °F 100% 30.15 in 0.2 mi Calm Calm - N/A Fog Fog
4:45 AM 39.2 °F - 39.2 °F 100% 30.10 in 0.2 mi Calm Calm - N/A Fog Fog
4:54 AM 37.0 °F 33.3 °F 37.0 °F 100% 30.07 in 0.5 mi North 4.6 mph - N/A Fog Fog
5:38 AM 42.8 °F - 41.0 °F 93% 30.11 in 1.0 mi Calm Calm - N/A   Overcast
5:43 AM 42.8 °F 40.1 °F 42.8 °F 100% 30.11 in 3.0 mi NNE 4.6 mph - N/A   Overcast
5:54 AM 42.1 °F - 42.1 °F 100% 30.09 in 5.0 mi Calm Calm - N/A   Overcast
6:34 AM 39.2 °F 35.9 °F 39.2 °F 100% 30.13 in 1.8 mi North 4.6 mph - N/A   Overcast
6:38 AM 39.2 °F 37.0 °F 39.2 °F 100% 30.13 in 0.5 mi North 3.5 mph - N/A Fog Fog
6:46 AM 39.2 °F 37.0 °F 39.2 °F 100% 30.12 in 0.2 mi ENE 3.5 mph - N/A Fog Fog
6:54 AM 39.0 °F 36.8 °F 37.9 °F 96% 30.09 in 0.2 mi NE 3.5 mph - N/A Fog Fog
7:19 AM 39.2 °F 37.0 °F 39.2 °F 100% 30.11 in 1.0 mi NNE 3.5 mph - N/A   Mist
7:26 AM 39.2 °F 35.9 °F 39.2 °F 100% 30.12 in 1.0 mi NW 4.6 mph - N/A   Scattered Clouds
7:54 AM 41.0 °F - 41.0 °F 100% 30.12 in 0.2 mi Calm Calm - N/A Fog Fog
8:01 AM 42.8 °F - 42.8 °F 100% 30.14 in - Calm Calm - N/A   Overcast
8:54 AM 45.0 °F - 45.0 °F 100% 30.11 in - Calm Calm - N/A   Overcast
9:54 AM 46.9 °F - 46.0 °F 97% 30.13 in 2.0 mi WSW 5.8 mph - N/A   Overcast
10:01 AM 46.4 °F 44.3 °F 46.4 °F 100% 30.16 in 1.0 mi WSW 4.6 mph - N/A   Overcast
10:54 AM 48.0 °F - 46.9 °F 96% 30.14 in 6.0 mi Calm Calm - N/A   Mostly Cloudy
10:57 AM 48.2 °F - 48.2 °F 100% 30.16 in 6.0 mi Calm Calm - N/A   Scattered Clouds
11:54 AM 54.0 °F - 46.9 °F 77% 30.12 in 10.0 mi West 3.5 mph - N/A   Scattered Clouds
12:54 PM 59.0 °F - 46.0 °F 62% 30.08 in 10.0 mi WSW 5.8 mph - N/A   Clear
1:54 PM 61.0 °F - 46.9 °F 60% 30.06 in 10.0 mi WSW 4.6 mph - N/A   Clear
2:54 PM 63.0 °F - 48.0 °F 58% 30.06 in 10.0 mi West 4.6 mph - N/A   Clear
3:54 PM 64.9 °F - 48.0 °F 54% 30.06 in 10.0 mi Calm Calm - N/A   Clear
4:54 PM 59.0 °F - 48.9 °F 69% 30.08 in 10.0 mi SSW 3.5 mph - N/A   Mostly Cloudy
5:54 PM 55.9 °F - 46.0 °F 69% 30.06 in 10.0 mi East 3.5 mph - N/A   Clear
6:54 PM 55.9 °F - 51.1 °F 84% 30.10 in 8.0 mi SW 4.6 mph - N/A   Clear
7:54 PM 55.0 °F - 48.0 °F 77% 30.12 in 9.0 mi Calm Calm - N/A   Clear
8:54 PM 52.0 °F - 45.0 °F 77% 30.13 in 10.0 mi ENE 3.5 mph - N/A   Clear
9:54 PM 52.0 °F - 46.9 °F 83% 30.13 in 9.0 mi NNW 3.5 mph - N/A   Clear
10:54 PM 51.1 °F - 46.0 °F 83% 30.13 in 10.0 mi Calm Calm - N/A   Clear
11:54 PM 53.1 °F - 46.9 °F 80% 30.16 in 10.0 mi Calm Calm - N/A   Clear